ROMMA est une association bénévole à but non lucratif. Votre soutien est indispensable : ADHERER à ROMMA ou FAIRE un DON

Le Versoud - (38, Isère)

Vallée du Grésivaudan (220 m)   Longitude: 05° 51' 44" E   Latitude: 45° 13' 06" N Station partenaire n°6
 

Détail journalier du     <<     >>

Température Humidité Pression Vent Dir Rafale Dir. rafale Ensol.
Heure (°C) (%) (hPa) (km/h) (km/h) (min)
01:00 10.294102300---0
02:00 9.694102200---0
03:00 9.095102200---0
04:00 8.695102200---0
05:00 8.196102200---0
06:00 7.495102300---0
07:00 7.396102300---0
08:00 6.896102300---0
09:00 7.097102300---0
10:00 7.697102300---0
11:00 10.196102302SO60
12:00 14.580102300---60
13:00 16.669102200---60
14:00 18.363102200---60
15:00 19.757102100---60
16:00 20.655102102SO60
17:00 21.157102000---60
18:00 18.768102000---60
19:00 15.981102102OSO5
20:00 14.087102100---0
21:00 12.890102100---0
22:00 11.892102200---0
23:00 10.992102200---0
minuit 10.494102200---0

Graphique du 26-10-2019

 

Serveur OMMA